Weather in Portrush

United Kingdom     55°12′12″N   6°39′10″W
temp.,
°C
wind,
m/s
gust,
m/s
humid.,
%
clouds,
%
prec.,
mm/h
press.,
hPa
HPBL,
m
26 october, tue
tue2601:00+11ssw81282100 0.0 1008690
04:00+10s91487100 1.6 1004800
07:00+12ssw111887100 2.3 1003809
10:00+14sw91584100 0.4 1003662
13:00+15ssw111783100 0.8 1003710
16:00+15sw121985100 0.3 1001775
19:00+15ssw131980100 0.4 1001809
22:00+15ssw132081100 0.1 1001749
27 october, wed
wed2701:00+14wsw4792100 7.9 1002185
04:00+14ssw71284100 0.5 1002382
07:00+15ssw91483100 0.5 1002528
10:00+15s61185100 0.3 1003268
13:00+15ssw6987100 0.6 1002234
16:00+14sse4594100 2.6 1000113
19:00+14ssw5790100 3.9 1000183
22:00+13ssw4789100 2.9 1000223
28 october, thu
thu2801:00+13ssw5987100 3.4 1000562
04:00+12s69883 0.1 999484
07:00+12s6987100 0.1 998471
10:00+12s61086100 0.0 998486
13:00+13ssw6979100 0.1 997650
16:00+13ssw5778100 0.0 997788
19:00+12s4583100 0.1 997377
22:00+11s4486100 0.0 997206
29 october, fri
fri2901:00+11s3483100 0.0 995218
04:00+11s4477100 0.1 994226
07:00+10s4477100 1.3 994226
10:00+10s56781 0.0 994298
13:00+11s567789 0.0 994566
16:00+12ssw5674100 0.4 994745
19:00+11s4680100 0.6 994398
22:00+10s5784100 0.4 994265
30 october, sat
sat3001:00+10s5780100 0.6 993341
04:00+9s57835 0.0 993322
07:00+8s67856 0.0 993248
10:00+8s578493 0.0 994245
13:00+10s56796 0.0 994442
16:00+11sse557645 0.0 993537
19:00+10se5883100 0.0 991422
22:00+10se71085100 1.1 9891092